Back to catalog

THORAD AGENA D DEB

AliveSSO
NORAD 4987·DEBRIS·🇺🇸 United States

Launched Apr 8, 1970 from Vandenberg Space Force Base

Loading…

Next Passes (next 24 hours)

TLE

FreshSource: Space-Track

Epoch: Sep 14, 2026, 06:11 UTC

1 04987U 70025HH  26257.25790677  .00000039  00000-0  12981-3 0  9993
2 04987  99.6239 182.1041 0038036 261.7472 253.4501 13.49139579775082

Track THORAD AGENA D DEB in real time with AllMySat

Download on the App Store